Home > Weather > Escuintla > Past weeks

Flag for Guatemala Weather for the Past 2 Weeks in Escuintla, Guatemala

Now
68 °F

Fog.


Feels Like: 68 °F
Forecast: 71 / 90 °F
Wind: 9 mph from North

Location: Guatemala Aeropuertola Aurora

Current Time: May 5, 2016 at 8:39:54 AM

Latest Report: May 5, 2016 at 8:00 AM


Visibility: 3 mi

Pressure: 30.30 "Hg

Humidity: 88%

Dew Point: 64 °F

Location of EscuintlaLocation

Historic Weather in Escuintla — Graph

°F

Escuintla Temperature Yesterday

Maximum temperature yesterday: 81 °F (at 12:00 PM)
Minimum temperature yesterday: 66 °F (at 5:00 AM)
Average temperature yesterday: 72 °F

High & Low Weather Summary for the Past Weeks

 TemperatureHumidityPressure
High86 °F (Apr 21, 2:00 PM)100% (Apr 27, 2:00 AM)30.33 "Hg (Apr 27, 2:00 AM)
Low61 °F (Apr 21, 5:00 AM)31% (Apr 21, 2:00 PM)30.12 "Hg (Apr 27, 3:00 PM)
Average71 °F75%30.22 "Hg
* Reported Apr 20 7:00 AM — May 5 7:00 AM, Escuintla, Weather by CustomWeather, © 2016

Note: Actual official high and low records may vary slightly from our data, if they occured in-between our weather recording intervals... More about our weather records

Advertising

Escuintla Weather History for the Previous 24 Hours

Scroll right to see more
 ConditionsComfort  
Time TempWeatherWind HumidityBarometerVisibility
7:00 AM
Thu, May 5
66 °FFog.7 mph94%30.27 "Hg3 mi
6:00 AM66 °FDrizzle. Fog.9 mph94%30.27 "Hg2 mi
5:00 AM68 °FPassing clouds.9 mph88%30.24 "Hg5 mi
4:00 AM66 °FFog.No wind94%30.21 "Hg2 mi
3:00 AM68 °FFog.2 mph88%30.24 "Hg3 mi
2:00 AM68 °FPartly cloudy.5 mph83%30.21 "Hg4 mi
1:00 AM70 °FPassing clouds.No wind83%30.24 "Hg4 mi
12:00 AM70 °FPassing clouds.5 mph83%30.27 "Hg4 mi
11:00 PM
Wed, May 4
70 °FMostly cloudy.No wind94%30.27 "Hg4 mi
10:00 PM70 °FMostly cloudy.3 mph83%30.30 "HgN/A
9:00 PM68 °FDrizzle. Mostly cloudy.No wind94%30.27 "Hg4 mi
8:00 PM72 °FLight rain. Mostly cloudy.7 mph83%30.24 "Hg4 mi
7:00 PM72 °FPassing clouds.No wind83%30.24 "Hg4 mi
6:00 PM73 °FThunderstorms. Broken clouds.12 mph74%30.21 "Hg4 mi
5:00 PM75 °FPartly sunny.14 mph69%30.21 "Hg4 mi
4:00 PM77 °FScattered clouds.14 mph69%30.18 "Hg4 mi
3:00 PM79 °FScattered clouds.14 mph61%30.18 "Hg4 mi
2:00 PM79 °FScattered clouds.12 mph65%30.21 "Hg3 mi
1:00 PM81 °FPartly sunny.12 mph48%30.24 "Hg4 mi
12:00 PM81 °FPartly sunny.No wind51%30.24 "Hg4 mi
11:00 AM77 °FScattered clouds.9 mph54%30.27 "Hg4 mi
10:00 AM77 °FScattered clouds.12 mph57%30.30 "Hg4 mi
9:00 AM73 °FScattered clouds.9 mph78%30.30 "Hg3 mi
8:00 AM70 °FScattered clouds.9 mph78%30.27 "Hg2 mi
Weather by CustomWeather, © 2016

See weather overviewHow to use our weather pages